Flag for U.S.A. Weather past 2 weeks in Pittsburgh, Pennsylvania, U.S.A.

Now
64 °F

Fog.


Feels Like: 64 °F
Forecast: 64 / 86 °F
Wind: 5 mph from Southeast

Location: Allegheny County Airport

Current Time: Jul 26, 2014 at 5:46:44 AM

Latest Report: Jul 26, 2014 at 4:53 AM


Visibility: 6 mi

Pressure: 30.00 "Hg

Humidity: 87%

Dew point: 60 °F

Location of PittsburghLocation

Historic Weather in Pittsburgh — Graph

°F

Pittsburgh temperature yesterday

Maximum temperature yesterday: 78 °F (at 4:53 PM)
Minimum temperature yesterday: 54 °F (at 5:53 AM)
Average temperature yesterday: 67 °F

Past Weeks' High & Low Weather Summary

 TemperatureHumidityPressure
High85 °F (Jul 12, 1:53 PM)94% (Jul 14, 7:58 AM)30.25 "Hg (Jul 14, 7:58 AM)
Low54 °F (Jul 25, 5:53 AM)29% (Jul 25, 3:53 PM)29.75 "Hg (Jul 15, 4:53 AM)
Average71 °F68%30.04 "Hg
* Reported Jul 11 3:53 AM — Jul 26 3:53 AM, Pittsburgh, Weather by CustomWeather, © 2014

Note: Actual official high and low records may vary slightly from our data, if they occured in-between our weather recording intervals... More about our weather records

Advertising

Pittsburgh weather history for previous 24 hours

 ConditionsComfort  
Time TempWeatherWind HumidityBarometerVisibility
3:53 AM
Jul 26
66 °FOvercast.No wind70%30.01 "Hg10 mi
2:53 AM67 °FLight rain. Overcast.5 mph68%30.01 "Hg10 mi
1:53 AM69 °FClear.No wind59%30.01 "Hg10 mi
12:53 AM69 °FLight rain. Passing clouds.3 mph59%30.01 "Hg10 mi
11:53 PM
Jul 25
69 °FPassing clouds.5 mph57%30.01 "Hg10 mi
10:53 PM71 °FClear.6 mph53%30.01 "Hg10 mi
9:53 PM72 °FClear.7 mph49%30.02 "Hg10 mi
8:53 PM72 °FSunny.5 mph49%30.01 "Hg10 mi
7:53 PM74 °FSunny.6 mph45%30.00 "Hg10 mi
6:53 PM76 °FSunny.5 mph39%30.01 "Hg10 mi
5:53 PM76 °FSunny.6 mph35%30.02 "Hg10 mi
4:53 PM78 °FSunny.6 mph30%30.02 "Hg10 mi
3:53 PM77 °FSunny.8 mph29%30.03 "Hg10 mi
2:53 PM76 °FSunny.6 mph31%30.05 "Hg10 mi
1:53 PM74 °FSunny.5 mph37%30.04 "Hg10 mi
12:53 PM73 °FSunny.No wind41%30.06 "Hg10 mi
11:53 AM70 °FSunny.No wind44%30.10 "Hg10 mi
10:53 AM68 °FSunny.No wind51%30.12 "Hg10 mi
9:53 AM65 °FSunny.No wind61%30.11 "Hg10 mi
8:53 AM62 °FSunny.No wind73%30.11 "Hg10 mi
7:53 AM58 °FSunny.No wind75%30.11 "Hg6 mi
6:53 AM55 °FClear.No wind80%30.09 "Hg9 mi
5:53 AM54 °FClear.3 mph80%30.08 "Hg10 mi
Weather by CustomWeather, © 2014

See weather overviewHow to use our weather pages